Time,TemperatureF,DewpointF,PressureIn,WindDirection,WindDirectionDegrees,WindSpeedMPH,WindSpeedGustMPH,Humidity,HourlyPrecipIn,Conditions,Clouds,dailyrainin,SoftwareType,DateUTC
2013-03-29 00:00:00,31.8,28.0,30.18,South,189,0.0,-999.0,87,-99.99,,,0.28,weatherlink.com 1.10,2013-03-29 04:00:00,
2013-03-29 00:15:00,31.5,28.0,30.19,South,189,0.0,-999.0,88,-99.99,,,0.28,weatherlink.com 1.10,2013-03-29 04:15:00,
2013-03-29 00:30:00,31.5,28.0,30.19,South,189,0.0,-999.0,88,-99.99,,,0.28,weatherlink.com 1.10,2013-03-29 04:30:00,
2013-03-29 00:45:00,31.9,29.0,30.18,South,189,0.0,-999.0,89,-99.99,,,0.28,weatherlink.com 1.10,2013-03-29 04:45:00,
2013-03-29 01:00:00,32.2,29.0,30.19,South,189,0.0,-999.0,88,-99.99,,,0.28,weatherlink.com 1.10,2013-03-29 05:00:00,
2013-03-29 01:15:00,31.9,29.0,30.19,South,189,0.0,-999.0,88,-99.99,,,0.29,weatherlink.com 1.10,2013-03-29 05:15:00,
2013-03-29 01:30:00,32.2,29.0,30.19,South,189,0.0,-999.0,88,-99.99,,,0.29,weatherlink.com 1.10,2013-03-29 05:30:00,
2013-03-29 01:45:00,32.5,29.0,30.18,South,189,1.0,-999.0,88,-99.99,,,0.00,weatherlink.com 1.10,2013-03-29 05:45:00,
2013-03-29 02:00:00,32.7,29.0,30.18,South,189,0.0,-999.0,87,-99.99,,,0.00,weatherlink.com 1.10,2013-03-29 06:00:00,
2013-03-29 02:15:00,32.5,29.0,30.18,South,189,0.0,-999.0,87,-99.99,,,0.00,weatherlink.com 1.10,2013-03-29 06:15:00,
2013-03-29 02:30:00,32.8,29.0,30.18,South,189,1.0,-999.0,86,-99.99,,,0.00,weatherlink.com 1.10,2013-03-29 06:30:00,
2013-03-29 02:45:00,32.8,29.0,30.18,South,189,0.0,-999.0,86,-99.99,,,0.00,weatherlink.com 1.10,2013-03-29 06:45:00,
2013-03-29 03:00:00,32.8,29.0,30.18,South,189,0.0,-999.0,85,-99.99,,,0.00,weatherlink.com 1.10,2013-03-29 07:00:00,
2013-03-29 03:15:00,32.8,29.0,30.18,South,189,0.0,-999.0,85,-99.99,,,0.00,weatherlink.com 1.10,2013-03-29 07:15:00,
2013-03-29 03:30:00,33.2,29.0,30.17,SSW,199,0.0,-999.0,84,-99.99,,,0.00,weatherlink.com 1.10,2013-03-29 07:30:00,
2013-03-29 03:45:00,33.1,29.0,30.17,SSW,202,0.0,-999.0,84,-99.99,,,0.00,weatherlink.com 1.10,2013-03-29 07:45:00,
2013-03-29 04:00:00,32.9,29.0,30.17,SSW,202,0.0,-999.0,84,-99.99,,,0.00,weatherlink.com 1.10,2013-03-29 08:00:00,
2013-03-29 04:15:00,32.8,29.0,30.17,SSW,202,0.0,-999.0,85,-99.99,,,0.00,weatherlink.com 1.10,2013-03-29 08:15:00,
2013-03-29 04:30:00,32.9,29.0,30.17,SSW,202,0.0,-999.0,85,-99.99,,,0.00,weatherlink.com 1.10,2013-03-29 08:30:00,
2013-03-29 04:45:00,32.8,29.0,30.16,SSW,202,0.0,-999.0,84,-99.99,,,0.00,weatherlink.com 1.10,2013-03-29 08:45:00,
2013-03-29 05:00:00,32.8,29.0,30.16,SSW,202,0.0,-999.0,85,-99.99,,,0.00,weatherlink.com 1.10,2013-03-29 09:00:00,
2013-03-29 05:15:00,32.7,29.0,30.16,SSW,202,0.0,-999.0,85,-99.99,,,0.00,weatherlink.com 1.10,2013-03-29 09:15:00,
2013-03-29 05:30:00,32.5,29.0,30.16,SSW,202,0.0,-999.0,85,-99.99,,,0.00,weatherlink.com 1.10,2013-03-29 09:30:00,
2013-03-29 05:45:00,32.4,28.0,30.16,SSW,202,0.0,-999.0,85,-99.99,,,0.00,weatherlink.com 1.10,2013-03-29 09:45:00,
2013-03-29 06:00:00,32.2,29.0,30.16,SSW,202,0.0,-999.0,86,-99.99,,,0.00,weatherlink.com 1.10,2013-03-29 10:00:00,
2013-03-29 06:15:00,32.1,28.0,30.16,SSW,202,0.0,-999.0,86,-99.99,,,0.00,weatherlink.com 1.10,2013-03-29 10:15:00,
2013-03-29 06:30:00,31.9,29.0,30.17,SSW,202,0.0,-999.0,87,-99.99,,,0.00,weatherlink.com 1.10,2013-03-29 10:30:00,
2013-03-29 06:45:00,31.8,28.0,30.17,SSW,202,0.0,-999.0,87,-99.99,,,0.00,weatherlink.com 1.10,2013-03-29 10:45:00,
2013-03-29 07:00:00,31.8,28.0,30.17,SSW,202,0.0,-999.0,87,-99.99,,,0.00,weatherlink.com 1.10,2013-03-29 11:00:00,
2013-03-29 07:15:00,31.6,29.0,30.17,SSW,202,0.0,-999.0,88,-99.99,,,0.00,weatherlink.com 1.10,2013-03-29 11:15:00,
2013-03-29 07:30:00,31.6,29.0,30.17,SSW,202,0.0,-999.0,88,-99.99,,,0.00,weatherlink.com 1.10,2013-03-29 11:30:00,
2013-03-29 07:45:00,31.5,28.0,30.17,SSW,202,0.0,-999.0,88,-99.99,,,0.00,weatherlink.com 1.10,2013-03-29 11:45:00,
2013-03-29 08:00:00,31.6,29.0,30.18,SSW,202,0.0,-999.0,88,-99.99,,,0.00,weatherlink.com 1.10,2013-03-29 12:00:00,
2013-03-29 08:15:00,31.9,29.0,30.18,SSW,202,0.0,-999.0,89,-99.99,,,0.00,weatherlink.com 1.10,2013-03-29 12:15:00,
2013-03-29 08:30:00,32.4,30.0,30.18,SSW,202,0.0,-999.0,89,-99.99,,,0.00,weatherlink.com 1.10,2013-03-29 12:30:00,
2013-03-29 08:45:00,32.9,30.0,30.18,SSW,202,0.0,-999.0,89,-99.99,,,0.00,weatherlink.com 1.10,2013-03-29 12:45:00,
2013-03-29 09:00:00,33.7,31.0,30.17,SSW,202,0.0,-999.0,89,-99.99,,,0.00,weatherlink.com 1.10,2013-03-29 13:00:00,
2013-03-29 09:15:00,34.9,31.0,30.17,SSW,203,0.0,-999.0,87,-99.99,,,0.00,weatherlink.com 1.10,2013-03-29 13:15:00,
2013-03-29 09:30:00,36.0,31.0,30.17,SSW,198,0.0,-999.0,83,-99.99,,,0.00,weatherlink.com 1.10,2013-03-29 13:30:00,
2013-03-29 09:45:00,37.3,30.0,30.17,SW,227,2.0,-999.0,75,-99.99,,,0.00,weatherlink.com 1.10,2013-03-29 13:45:00,
2013-03-29 10:00:00,38.6,30.0,30.17,SW,227,0.0,-999.0,71,-99.99,,,0.00,weatherlink.com 1.10,2013-03-29 14:00:00,
2013-03-29 10:15:00,39.5,30.0,30.16,South,186,0.0,-999.0,69,-99.99,,,0.00,weatherlink.com 1.10,2013-03-29 14:15:00,
2013-03-29 10:30:00,39.5,29.0,30.16,SSW,195,2.0,-999.0,67,-99.99,,,0.00,weatherlink.com 1.10,2013-03-29 14:30:00,
2013-03-29 10:45:00,40.5,29.0,30.16,South,175,1.0,-999.0,65,-99.99,,,0.00,weatherlink.com 1.10,2013-03-29 14:45:00,
2013-03-29 11:00:00,41.5,29.0,30.17,WSW,239,2.0,-999.0,62,-99.99,,,0.00,weatherlink.com 1.10,2013-03-29 15:00:00,
2013-03-29 11:15:00,42.3,29.0,30.16,SW,226,2.0,-999.0,59,-99.99,,,0.00,weatherlink.com 1.10,2013-03-29 15:15:00,
2013-03-29 11:30:00,42.8,29.0,30.16,SW,219,3.0,-999.0,58,-99.99,,,0.00,weatherlink.com 1.10,2013-03-29 15:30:00,
2013-03-29 11:45:00,43.6,29.0,30.16,WNW,284,1.0,-999.0,56,-99.99,,,0.00,weatherlink.com 1.10,2013-03-29 15:45:00,
2013-03-29 12:00:00,44.5,27.0,30.16,NW,308,2.0,-999.0,50,-99.99,,,0.00,weatherlink.com 1.10,2013-03-29 16:00:00,
2013-03-29 12:15:00,44.5,26.0,30.16,NW,325,5.0,-999.0,49,-99.99,,,0.00,weatherlink.com 1.10,2013-03-29 16:15:00,
2013-03-29 12:30:00,44.8,25.0,30.16,NW,305,3.0,-999.0,46,-99.99,,,0.00,weatherlink.com 1.10,2013-03-29 16:30:00,
2013-03-29 12:45:00,45.5,26.0,30.15,WNW,288,3.0,-999.0,46,-99.99,,,0.00,weatherlink.com 1.10,2013-03-29 16:45:00,
2013-03-29 13:00:00,46.2,25.0,30.14,NW,311,7.0,-999.0,43,-99.99,,,0.00,weatherlink.com 1.10,2013-03-29 17:00:00,
2013-03-29 13:15:00,46.2,26.0,30.14,NW,323,1.0,-999.0,45,-99.99,,,0.00,weatherlink.com 1.10,2013-03-29 17:15:00,
2013-03-29 13:30:00,45.1,25.0,30.14,NNW,333,5.0,-999.0,46,-99.99,,,0.00,weatherlink.com 1.10,2013-03-29 17:30:00,
2013-03-29 13:45:00,44.5,26.0,30.13,NW,309,6.0,-999.0,49,-99.99,,,0.00,weatherlink.com 1.10,2013-03-29 17:45:00,
2013-03-29 14:00:00,44.3,28.0,30.14,NNW,333,1.0,-999.0,53,-99.99,,,0.00,weatherlink.com 1.10,2013-03-29 18:00:00,
2013-03-29 14:15:00,44.5,26.0,30.13,NW,313,1.0,-999.0,49,-99.99,,,0.00,weatherlink.com 1.10,2013-03-29 18:15:00,
2013-03-29 14:30:00,45.8,25.0,30.12,West,265,4.0,-999.0,44,-99.99,,,0.00,weatherlink.com 1.10,2013-03-29 18:30:00,
2013-03-29 14:45:00,46.0,24.0,30.12,North,0,5.0,-999.0,43,-99.99,,,0.00,weatherlink.com 1.10,2013-03-29 18:45:00,
2013-03-29 15:00:00,46.0,25.0,30.12,NW,304,6.0,-999.0,44,-99.99,,,0.00,weatherlink.com 1.10,2013-03-29 19:00:00,
2013-03-29 15:15:00,45.5,25.0,30.12,NNW,330,3.0,-999.0,45,-99.99,,,0.00,weatherlink.com 1.10,2013-03-29 19:15:00,
2013-03-29 15:30:00,46.2,24.0,30.11,WNW,295,3.0,-999.0,41,-99.99,,,0.00,weatherlink.com 1.10,2013-03-29 19:30:00,
2013-03-29 15:45:00,47.1,25.0,30.11,NNW,330,10.0,-999.0,42,-99.99,,,0.00,weatherlink.com 1.10,2013-03-29 19:45:00,
2013-03-29 16:00:00,47.1,26.0,30.11,NNW,340,6.0,-999.0,44,-99.99,,,0.00,weatherlink.com 1.10,2013-03-29 20:00:00,
2013-03-29 16:15:00,46.7,26.0,30.11,NNW,328,7.0,-999.0,44,-99.99,,,0.00,weatherlink.com 1.10,2013-03-29 20:15:00,
2013-03-29 16:30:00,47.0,25.0,30.10,NW,322,11.0,-999.0,42,-99.99,,,0.00,weatherlink.com 1.10,2013-03-29 20:30:00,
2013-03-29 16:45:00,47.1,26.0,30.10,NNW,340,7.0,-999.0,44,-99.99,,,0.00,weatherlink.com 1.10,2013-03-29 20:45:00,
2013-03-29 17:00:00,46.7,24.0,30.11,WNW,294,3.0,-999.0,41,-99.99,,,0.00,weatherlink.com 1.10,2013-03-29 21:00:00,
2013-03-29 17:15:00,46.5,27.0,30.10,North,357,2.0,-999.0,46,-99.99,,,0.00,weatherlink.com 1.10,2013-03-29 21:15:00,
2013-03-29 17:30:00,46.5,23.0,30.10,NW,326,2.0,-999.0,40,-99.99,,,0.00,weatherlink.com 1.10,2013-03-29 21:30:00,
2013-03-29 17:45:00,45.8,24.0,30.10,WNW,299,9.0,-999.0,42,-99.99,,,0.00,weatherlink.com 1.10,2013-03-29 21:45:00,
2013-03-29 18:00:00,45.2,24.0,30.11,SW,223,1.0,-999.0,43,-99.99,,,0.00,weatherlink.com 1.10,2013-03-29 22:00:00,
2013-03-29 18:15:00,44.1,23.0,30.11,NNW,342,5.0,-999.0,43,-99.99,,,0.00,weatherlink.com 1.10,2013-03-29 22:15:00,
2013-03-29 18:30:00,43.3,24.0,30.11,NW,309,2.0,-999.0,46,-99.99,,,0.00,weatherlink.com 1.10,2013-03-29 22:30:00,
2013-03-29 18:45:00,42.9,23.0,30.12,NW,319,7.0,-999.0,45,-99.99,,,0.00,weatherlink.com 1.10,2013-03-29 22:45:00,
2013-03-29 19:00:00,42.5,22.0,30.12,West,261,1.0,-999.0,44,-99.99,,,0.00,weatherlink.com 1.10,2013-03-29 23:00:00,
2013-03-29 19:15:00,42.1,23.0,30.12,WNW,301,2.0,-999.0,46,-99.99,,,0.00,weatherlink.com 1.10,2013-03-29 23:15:00,
2013-03-29 19:30:00,41.5,22.0,30.12,NW,318,0.0,-999.0,47,-99.99,,,0.00,weatherlink.com 1.10,2013-03-29 23:30:00,
2013-03-29 19:45:00,40.6,22.0,30.13,NW,318,0.0,-999.0,48,-99.99,,,0.00,weatherlink.com 1.10,2013-03-29 23:45:00,
2013-03-29 20:00:00,39.8,22.0,30.13,NW,318,0.0,-999.0,49,-99.99,,,0.00,weatherlink.com 1.10,2013-03-30 00:00:00,
2013-03-29 20:15:00,38.6,22.0,30.13,NW,313,0.0,-999.0,52,-99.99,,,0.00,weatherlink.com 1.10,2013-03-30 00:15:00,
2013-03-29 20:30:00,37.9,22.0,30.14,NW,308,0.0,-999.0,54,-99.99,,,0.00,weatherlink.com 1.10,2013-03-30 00:30:00,
2013-03-29 20:45:00,37.5,23.0,30.14,NW,306,0.0,-999.0,56,-99.99,,,0.00,weatherlink.com 1.10,2013-03-30 00:45:00,
2013-03-29 21:00:00,36.5,24.0,30.14,NW,306,0.0,-999.0,60,-99.99,,,0.00,weatherlink.com 1.10,2013-03-30 01:00:00,
2013-03-29 21:15:00,35.6,23.0,30.14,NW,308,0.0,-999.0,60,-99.99,,,0.00,weatherlink.com 1.10,2013-03-30 01:15:00,
2013-03-29 21:30:00,35.0,23.0,30.15,NW,308,0.0,-999.0,62,-99.99,,,0.00,weatherlink.com 1.10,2013-03-30 01:30:00,
2013-03-29 21:45:00,34.6,23.0,30.15,NW,308,0.0,-999.0,64,-99.99,,,0.00,weatherlink.com 1.10,2013-03-30 01:45:00,
2013-03-29 22:00:00,34.1,24.0,30.15,NW,306,0.0,-999.0,66,-99.99,,,0.00,weatherlink.com 1.10,2013-03-30 02:00:00,
2013-03-29 22:15:00,33.5,23.0,30.15,NW,308,0.0,-999.0,66,-99.99,,,0.00,weatherlink.com 1.10,2013-03-30 02:15:00,
2013-03-29 22:30:00,33.2,23.0,30.15,NW,306,0.0,-999.0,66,-99.99,,,0.00,weatherlink.com 1.10,2013-03-30 02:30:00,
2013-03-29 22:45:00,32.8,23.0,30.16,NW,306,0.0,-999.0,68,-99.99,,,0.00,weatherlink.com 1.10,2013-03-30 02:45:00,
2013-03-29 23:00:00,32.5,24.0,30.15,NW,306,0.0,-999.0,70,-99.99,,,0.00,weatherlink.com 1.10,2013-03-30 03:00:00,
2013-03-29 23:15:00,32.1,24.0,30.15,NW,306,0.0,-999.0,71,-99.99,,,0.00,weatherlink.com 1.10,2013-03-30 03:15:00,
2013-03-29 23:30:00,31.8,23.0,30.15,NW,308,0.0,-999.0,71,-99.99,,,0.00,weatherlink.com 1.10,2013-03-30 03:30:00,
2013-03-29 23:45:00,31.3,23.0,30.15,NW,306,0.0,-999.0,71,-99.99,,,0.00,weatherlink.com 1.10,2013-03-30 03:45:00,